Time,TemperatureF,DewpointF,PressureIn,WindDirection,WindDirectionDegrees,WindSpeedMPH,WindSpeedGustMPH,Humidity,HourlyPrecipIn,Conditions,Clouds,dailyrainin,SoftwareType,DateUTC
2013-04-15 00:02:00,37.2,35.4,29.98,SSW,213,0.0,3.0,93,0.00,,,0.00,Wunderground v.1.15,2013-04-15 07:02:00,
2013-04-15 10:03:00,41.6,40.5,30.03,ESE,119,2.0,2.0,96,0.00,,,0.00,Wunderground v.1.15,2013-04-15 17:03:00,
2013-04-15 10:05:00,42.3,41.2,30.03,ESE,119,1.0,1.0,96,0.00,,,0.00,Wunderground v.1.15,2013-04-15 17:05:00,
2013-04-15 10:11:00,44.7,43.6,30.03,SE,136,1.0,2.0,96,0.00,,,0.00,Wunderground v.1.15,2013-04-15 17:11:00,
2013-04-15 10:17:00,45.0,43.9,30.03,SE,136,1.0,2.0,96,0.00,,,0.00,Wunderground v.1.15,2013-04-15 17:17:00,
2013-04-15 10:21:00,44.7,43.6,30.03,SE,136,1.0,1.0,96,0.00,,,0.00,Wunderground v.1.15,2013-04-15 17:21:00,
2013-04-15 10:22:00,44.8,43.7,30.03,SE,138,1.0,1.0,96,0.00,,,0.00,Wunderground v.1.15,2013-04-15 17:22:00,
2013-04-15 10:25:00,45.3,44.0,30.03,ENE,71,0.0,1.0,95,0.00,,,0.00,Wunderground v.1.15,2013-04-15 17:25:00,
2013-04-15 10:28:00,46.1,44.7,30.03,NW,314,1.0,3.0,95,0.00,,,0.00,Wunderground v.1.15,2013-04-15 17:28:00,
2013-04-15 10:30:00,46.8,45.4,30.03,NW,313,1.0,1.0,95,0.00,,,0.00,Wunderground v.1.15,2013-04-15 17:30:00,
2013-04-15 10:36:00,47.9,45.4,30.02,WSW,244,1.0,3.0,91,0.00,,,0.00,Wunderground v.1.15,2013-04-15 17:36:00,
2013-04-15 10:42:00,50.3,46.3,30.03,West,279,1.0,4.0,86,0.00,,,0.00,Wunderground v.1.15,2013-04-15 17:42:00,
2013-04-15 10:48:00,52.1,44.4,30.03,WNW,287,1.0,4.0,75,0.00,,,0.00,Wunderground v.1.15,2013-04-15 17:48:00,
2013-04-15 10:53:00,52.7,42.8,30.03,WNW,286,1.0,3.0,69,0.00,,,0.00,Wunderground v.1.15,2013-04-15 17:53:00,
2013-04-15 10:59:00,53.1,42.0,30.03,WNW,284,1.0,1.0,66,0.00,,,0.00,Wunderground v.1.15,2013-04-15 17:59:00,
2013-04-15 11:04:00,53.1,42.0,30.03,NW,311,2.0,4.0,66,0.00,,,0.00,Wunderground v.1.15,2013-04-15 18:04:00,
2013-04-15 11:10:00,52.1,42.2,30.03,NW,311,2.0,2.0,69,0.00,,,0.00,Wunderground v.1.15,2013-04-15 18:10:00,
2013-04-15 11:15:00,51.8,41.6,30.03,NW,310,1.0,4.0,68,0.00,,,0.00,Wunderground v.1.15,2013-04-15 18:15:00,
2013-04-15 11:21:00,51.6,41.8,30.04,NW,310,0.0,4.0,69,0.00,,,0.00,Wunderground v.1.15,2013-04-15 18:21:00,
2013-04-15 11:27:00,51.5,39.7,30.03,NW,309,0.0,4.0,64,0.00,,,0.00,Wunderground v.1.15,2013-04-15 18:27:00,
2013-04-15 11:29:00,51.5,39.3,30.03,ESE,116,1.0,4.0,63,0.00,,,0.00,Wunderground v.1.15,2013-04-15 18:29:00,
2013-04-15 11:30:00,51.3,39.5,30.03,ESE,123,1.0,4.0,64,0.00,,,0.00,Wunderground v.1.15,2013-04-15 18:30:00,
2013-04-15 11:32:00,51.0,39.2,30.03,ESE,119,1.0,4.0,64,0.00,,,0.00,Wunderground v.1.15,2013-04-15 18:32:00,
2013-04-15 11:38:00,51.8,42.3,30.03,SSW,193,2.0,4.0,70,0.00,,,0.00,Wunderground v.1.15,2013-04-15 18:38:00,
2013-04-15 11:40:00,52.5,42.2,30.03,South,188,2.0,4.0,68,0.00,,,0.00,Wunderground v.1.15,2013-04-15 18:40:00,
2013-04-15 11:42:00,52.8,41.4,30.03,SSW,198,2.0,4.0,65,0.00,,,0.00,Wunderground v.1.15,2013-04-15 18:42:00,
2013-04-15 11:47:00,54.0,43.3,30.04,WNW,294,1.0,4.0,67,0.00,,,0.00,Wunderground v.1.15,2013-04-15 18:47:00,
2013-04-15 11:52:00,55.1,42.3,30.04,NW,306,2.0,4.0,62,0.00,,,0.00,Wunderground v.1.15,2013-04-15 18:52:00,
2013-04-15 11:58:00,55.0,42.2,30.04,WNW,300,4.0,8.0,62,0.00,,,0.00,Wunderground v.1.15,2013-04-15 18:58:00,
2013-04-15 12:03:00,53.7,42.6,30.04,WNW,282,4.0,4.0,66,0.00,,,0.00,Wunderground v.1.15,2013-04-15 19:03:00,
2013-04-15 12:09:00,52.9,42.2,30.04,West,265,2.0,4.0,67,0.00,,,0.00,Wunderground v.1.15,2013-04-15 19:09:00,
2013-04-15 12:15:00,53.2,42.1,30.04,SW,233,2.0,3.0,66,0.00,,,0.00,Wunderground v.1.15,2013-04-15 19:15:00,
2013-04-15 12:20:00,53.6,42.9,30.04,WSW,254,2.0,3.0,67,0.00,,,0.00,Wunderground v.1.15,2013-04-15 19:20:00,
2013-04-15 12:26:00,53.9,42.4,30.04,SW,215,3.0,4.0,65,0.00,,,0.00,Wunderground v.1.15,2013-04-15 19:26:00,
2013-04-15 12:31:00,53.8,41.9,30.04,SW,221,3.0,3.0,64,0.00,,,0.00,Wunderground v.1.15,2013-04-15 19:31:00,
2013-04-15 12:37:00,53.5,41.6,30.04,NW,322,2.0,5.0,64,0.00,,,0.00,Wunderground v.1.15,2013-04-15 19:37:00,
2013-04-15 12:42:00,52.6,41.6,30.04,West,273,3.0,3.0,66,0.00,,,0.00,Wunderground v.1.15,2013-04-15 19:42:00,
2013-04-15 12:49:00,52.6,41.6,30.04,West,270,2.0,4.0,66,0.00,,,0.00,Wunderground v.1.15,2013-04-15 19:49:00,
2013-04-15 12:54:00,53.5,42.8,30.04,West,261,2.0,3.0,67,0.00,,,0.00,Wunderground v.1.15,2013-04-15 19:54:00,
2013-04-15 12:58:00,54.5,41.3,30.04,NW,306,2.0,4.0,61,0.00,,,0.00,Wunderground v.1.15,2013-04-15 19:58:00,
2013-04-15 13:02:00,53.9,40.8,30.04,North,355,2.0,14.0,61,0.00,,,0.00,Wunderground v.1.15,2013-04-15 20:02:00,
2013-04-15 13:03:00,53.8,41.1,30.04,NNW,331,2.0,14.0,62,0.00,,,0.00,Wunderground v.1.15,2013-04-15 20:03:00,
2013-04-15 13:04:00,53.8,40.7,30.04,NNW,331,2.0,14.0,61,0.00,,,0.00,Wunderground v.1.15,2013-04-15 20:04:00,
2013-04-15 13:05:00,53.8,40.7,30.04,NNW,331,2.0,14.0,61,0.00,,,0.00,Wunderground v.1.15,2013-04-15 20:05:00,
2013-04-15 13:10:00,53.7,39.3,30.04,NNW,348,3.0,14.0,58,0.00,,,0.00,Wunderground v.1.15,2013-04-15 20:10:00,
2013-04-15 13:15:00,54.0,41.7,30.04,SSW,208,5.0,14.0,63,0.00,,,0.00,Wunderground v.1.15,2013-04-15 20:15:00,
2013-04-15 13:20:00,53.9,41.2,30.04,WNW,299,6.0,14.0,62,0.00,,,0.00,Wunderground v.1.15,2013-04-15 20:20:00,
2013-04-15 13:27:00,53.7,40.6,30.04,WNW,299,4.0,14.0,61,0.00,,,0.00,Wunderground v.1.15,2013-04-15 20:27:00,
2013-04-15 13:32:00,53.7,39.3,30.04,NW,324,7.0,14.0,58,0.00,,,0.00,Wunderground v.1.15,2013-04-15 20:32:00,
2013-04-15 13:37:00,52.2,38.7,30.05,NNW,338,9.0,14.0,60,0.00,,,0.00,Wunderground v.1.15,2013-04-15 20:37:00,
2013-04-15 13:43:00,51.5,38.1,30.05,NNW,336,8.0,14.0,60,0.00,,,0.00,Wunderground v.1.15,2013-04-15 20:43:00,
2013-04-15 13:48:00,52.0,38.1,30.04,NE,49,9.0,14.0,59,0.00,,,0.00,Wunderground v.1.15,2013-04-15 20:48:00,
2013-04-15 13:53:00,52.2,37.0,30.04,North,355,9.0,14.0,56,0.00,,,0.00,Wunderground v.1.15,2013-04-15 20:53:00,
2013-04-15 13:58:00,52.2,37.4,30.04,NNE,32,6.0,14.0,57,0.00,,,0.00,Wunderground v.1.15,2013-04-15 20:58:00,
2013-04-15 14:04:00,52.6,38.7,30.05,NW,313,6.0,14.0,59,0.00,,,0.00,Wunderground v.1.15,2013-04-15 21:04:00,
2013-04-15 14:09:00,53.2,38.8,30.05,WNW,302,7.0,14.0,58,0.00,,,0.00,Wunderground v.1.15,2013-04-15 21:09:00,
2013-04-15 14:15:00,53.8,38.5,30.05,NNE,28,5.0,14.0,56,0.00,,,0.00,Wunderground v.1.15,2013-04-15 21:15:00,
2013-04-15 14:20:00,54.6,39.7,30.05,NW,315,5.0,5.0,57,0.00,,,0.00,Wunderground v.1.15,2013-04-15 21:20:00,
2013-04-15 14:26:00,55.6,39.2,30.05,NW,304,7.0,14.0,54,0.00,,,0.00,Wunderground v.1.15,2013-04-15 21:26:00,
2013-04-15 14:31:00,54.9,39.5,30.05,NNE,29,7.0,14.0,56,0.00,,,0.00,Wunderground v.1.15,2013-04-15 21:31:00,
2013-04-15 14:37:00,52.9,40.2,30.05,NE,38,6.0,14.0,62,0.00,,,0.00,Wunderground v.1.15,2013-04-15 21:37:00,
2013-04-15 14:42:00,52.2,39.6,30.05,NE,55,4.0,14.0,62,0.00,,,0.00,Wunderground v.1.15,2013-04-15 21:42:00,
2013-04-15 14:48:00,52.3,39.7,30.05,NNW,346,4.0,14.0,62,0.00,,,0.00,Wunderground v.1.15,2013-04-15 21:48:00,
2013-04-15 14:53:00,52.8,40.1,30.05,WNW,288,4.0,14.0,62,0.00,,,0.00,Wunderground v.1.15,2013-04-15 21:53:00,
2013-04-15 14:58:00,53.7,38.8,30.05,North,5,4.0,14.0,57,0.00,,,0.00,Wunderground v.1.15,2013-04-15 21:58:00,
2013-04-15 15:04:00,55.2,39.8,30.05,North,5,6.0,14.0,56,0.00,,,0.00,Wunderground v.1.15,2013-04-15 22:04:00,
2013-04-15 15:10:00,56.0,39.6,30.05,WNW,293,6.0,14.0,54,0.00,,,0.00,Wunderground v.1.15,2013-04-15 22:10:00,
2013-04-15 15:16:00,55.8,38.9,30.05,NNW,338,5.0,14.0,53,0.00,,,0.00,Wunderground v.1.15,2013-04-15 22:16:00,
2013-04-15 15:21:00,55.8,39.9,30.05,NNW,329,6.0,14.0,55,0.00,,,0.00,Wunderground v.1.15,2013-04-15 22:21:00,
2013-04-15 15:27:00,55.6,39.2,30.05,North,360,7.0,14.0,54,0.00,,,0.00,Wunderground v.1.15,2013-04-15 22:27:00,
2013-04-15 15:32:00,55.4,38.1,30.05,NNE,23,7.0,14.0,52,0.00,,,0.00,Wunderground v.1.15,2013-04-15 22:32:00,
2013-04-15 15:38:00,55.6,37.7,30.05,NW,321,6.0,14.0,51,0.00,,,0.00,Wunderground v.1.15,2013-04-15 22:38:00,
2013-04-15 15:43:00,56.3,39.9,30.05,West,270,5.0,14.0,54,0.00,,,0.00,Wunderground v.1.15,2013-04-15 22:43:00,
2013-04-15 15:48:00,57.4,38.4,30.05,North,351,3.0,14.0,49,0.00,,,0.00,Wunderground v.1.15,2013-04-15 22:48:00,
2013-04-15 15:54:00,56.9,38.9,30.05,North,5,6.0,14.0,51,0.00,,,0.00,Wunderground v.1.15,2013-04-15 22:54:00,
2013-04-15 15:59:00,56.2,40.7,30.05,WNW,297,6.0,14.0,56,0.00,,,0.00,Wunderground v.1.15,2013-04-15 22:59:00,
2013-04-15 16:04:00,55.5,37.7,30.05,WNW,302,5.0,14.0,51,0.00,,,0.00,Wunderground v.1.15,2013-04-15 23:04:00,
2013-04-15 16:10:00,55.6,39.7,30.05,NW,304,5.0,14.0,55,0.00,,,0.00,Wunderground v.1.15,2013-04-15 23:10:00,
2013-04-15 16:16:00,56.3,41.3,30.05,West,269,4.0,14.0,57,0.00,,,0.00,Wunderground v.1.15,2013-04-15 23:16:00,
2013-04-15 16:22:00,57.2,41.2,30.05,WNW,297,4.0,14.0,55,0.00,,,0.00,Wunderground v.1.15,2013-04-15 23:22:00,
2013-04-15 16:28:00,58.1,41.5,30.04,WSW,247,4.0,14.0,54,0.00,,,0.00,Wunderground v.1.15,2013-04-15 23:28:00,
2013-04-15 16:33:00,57.8,41.3,30.05,WSW,246,5.0,14.0,54,0.00,,,0.00,Wunderground v.1.15,2013-04-15 23:33:00,
2013-04-15 16:39:00,57.2,41.2,30.05,West,280,4.0,14.0,55,0.00,,,0.00,Wunderground v.1.15,2013-04-15 23:39:00,
2013-04-15 16:44:00,57.2,41.2,30.05,WSW,254,5.0,14.0,55,0.00,,,0.00,Wunderground v.1.15,2013-04-15 23:44:00,
2013-04-15 16:50:00,57.5,40.5,30.05,WNW,291,4.0,14.0,53,0.00,,,0.00,Wunderground v.1.15,2013-04-15 23:50:00,
2013-04-15 16:55:00,56.5,40.5,30.05,WNW,303,5.0,14.0,55,0.00,,,0.00,Wunderground v.1.15,2013-04-15 23:55:00,
2013-04-15 17:01:00,55.7,41.1,30.05,NW,313,4.0,14.0,58,0.00,,,0.00,Wunderground v.1.15,2013-04-16 00:01:00,
2013-04-15 17:06:00,55.4,41.3,30.05,SW,225,1.0,14.0,59,0.00,,,0.00,Wunderground v.1.15,2013-04-16 00:06:00,
2013-04-15 17:11:00,55.1,41.9,30.05,WNW,293,2.0,14.0,61,0.00,,,0.00,Wunderground v.1.15,2013-04-16 00:11:00,
2013-04-15 17:17:00,54.5,40.9,30.06,NW,317,2.0,14.0,60,0.00,,,0.00,Wunderground v.1.15,2013-04-16 00:17:00,
2013-04-15 17:23:00,54.4,39.5,30.06,NW,321,1.0,14.0,57,0.00,,,0.00,Wunderground v.1.15,2013-04-16 00:23:00,
2013-04-15 17:28:00,55.1,38.3,30.06,NW,306,1.0,14.0,53,0.00,,,0.00,Wunderground v.1.15,2013-04-16 00:28:00,
2013-04-15 17:33:00,56.4,39.0,30.06,West,271,2.0,14.0,52,0.00,,,0.00,Wunderground v.1.15,2013-04-16 00:33:00,
2013-04-15 17:38:00,57.3,41.7,30.06,WNW,288,2.0,14.0,56,0.00,,,0.00,Wunderground v.1.15,2013-04-16 00:38:00,
2013-04-15 17:44:00,57.8,42.2,30.06,NNE,17,3.0,14.0,56,0.00,,,0.00,Wunderground v.1.15,2013-04-16 00:44:00,
2013-04-15 17:49:00,57.6,41.5,30.06,NW,325,3.0,14.0,55,0.00,,,0.00,Wunderground v.1.15,2013-04-16 00:49:00,
2013-04-15 17:54:00,56.8,41.3,30.07,WSW,244,4.0,14.0,56,0.00,,,0.00,Wunderground v.1.15,2013-04-16 00:54:00,
2013-04-15 18:00:00,56.0,41.9,30.07,NW,318,4.0,14.0,59,0.00,,,0.00,Wunderground v.1.15,2013-04-16 01:00:00,
2013-04-15 18:05:00,55.8,42.5,30.07,WNW,298,4.0,14.0,61,0.00,,,0.00,Wunderground v.1.15,2013-04-16 01:05:00,
2013-04-15 18:11:00,56.0,42.3,30.07,SW,224,4.0,5.0,60,0.00,,,0.00,Wunderground v.1.15,2013-04-16 01:11:00,
2013-04-15 18:16:00,56.0,42.7,30.07,WNW,302,4.0,6.0,61,0.00,,,0.00,Wunderground v.1.15,2013-04-16 01:16:00,
2013-04-15 18:22:00,55.4,42.2,30.08,WSW,254,5.0,5.0,61,0.00,,,0.00,Wunderground v.1.15,2013-04-16 01:22:00,
2013-04-15 18:28:00,55.1,42.3,30.08,West,261,5.0,5.0,62,0.00,,,0.00,Wunderground v.1.15,2013-04-16 01:28:00,
2013-04-15 18:33:00,54.4,42.9,30.08,West,264,4.0,5.0,65,0.00,,,0.00,Wunderground v.1.15,2013-04-16 01:33:00,
2013-04-15 18:38:00,53.5,42.4,30.08,WNW,282,3.0,5.0,66,0.00,,,0.00,Wunderground v.1.15,2013-04-16 01:38:00,
2013-04-15 18:44:00,52.7,42.0,30.08,West,273,3.0,3.0,67,0.00,,,0.00,Wunderground v.1.15,2013-04-16 01:44:00,
2013-04-15 18:49:00,52.1,42.2,30.08,NW,306,2.0,3.0,69,0.00,,,0.00,Wunderground v.1.15,2013-04-16 01:49:00,
2013-04-15 18:55:00,51.8,41.9,30.08,West,279,1.0,3.0,69,0.00,,,0.00,Wunderground v.1.15,2013-04-16 01:55:00,
2013-04-15 19:00:00,51.4,41.9,30.09,WNW,284,1.0,1.0,70,0.00,,,0.00,Wunderground v.1.15,2013-04-16 02:00:00,
2013-04-15 19:06:00,50.9,41.8,30.09,NW,312,1.0,13.0,71,0.00,,,0.00,Wunderground v.1.15,2013-04-16 02:06:00,
2013-04-15 19:11:00,50.5,41.8,30.09,WSW,241,1.0,2.0,72,0.00,,,0.00,Wunderground v.1.15,2013-04-16 02:11:00,
2013-04-15 19:17:00,50.2,41.9,30.10,NW,306,1.0,13.0,73,0.00,,,0.00,Wunderground v.1.15,2013-04-16 02:17:00,
2013-04-15 19:22:00,50.0,41.7,30.09,WNW,285,1.0,13.0,73,0.00,,,0.00,Wunderground v.1.15,2013-04-16 02:22:00,
2013-04-15 19:28:00,49.8,41.8,30.09,WSW,255,1.0,13.0,74,0.00,,,0.00,Wunderground v.1.15,2013-04-16 02:28:00,
2013-04-15 19:33:00,49.7,41.7,30.10,West,265,2.0,13.0,74,0.00,,,0.00,Wunderground v.1.15,2013-04-16 02:33:00,
2013-04-15 19:39:00,49.6,41.7,30.10,NW,306,1.0,13.0,74,0.00,,,0.00,Wunderground v.1.15,2013-04-16 02:39:00,
2013-04-15 19:44:00,49.6,41.7,30.11,WNW,300,1.0,13.0,74,0.00,,,0.00,Wunderground v.1.15,2013-04-16 02:44:00,
2013-04-15 19:49:00,49.6,41.7,30.11,WNW,292,2.0,13.0,74,0.00,,,0.00,Wunderground v.1.15,2013-04-16 02:49:00,
2013-04-15 19:55:00,49.6,41.7,30.11,WNW,291,3.0,13.0,74,0.00,,,0.00,Wunderground v.1.15,2013-04-16 02:55:00,
2013-04-15 20:00:00,49.5,41.6,30.11,West,281,2.0,13.0,74,0.00,,,0.00,Wunderground v.1.15,2013-04-16 03:00:00,
2013-04-15 20:05:00,49.4,41.5,30.12,WNW,294,2.0,13.0,74,0.00,,,0.00,Wunderground v.1.15,2013-04-16 03:05:00,
2013-04-15 20:11:00,49.2,42.0,30.12,WSW,237,2.0,13.0,76,0.00,,,0.00,Wunderground v.1.15,2013-04-16 03:11:00,
2013-04-15 20:16:00,49.2,42.6,30.12,WNW,301,1.0,13.0,78,0.00,,,0.01,Wunderground v.1.15,2013-04-16 03:16:00,
2013-04-15 20:22:00,48.9,42.7,30.13,NW,315,2.0,13.0,79,0.00,,,0.01,Wunderground v.1.15,2013-04-16 03:22:00,
2013-04-15 20:28:00,48.5,42.3,30.13,NW,308,7.0,13.0,79,0.00,,,0.01,Wunderground v.1.15,2013-04-16 03:28:00,
2013-04-15 20:33:00,47.8,40.9,30.13,WNW,286,9.0,13.0,77,0.00,,,0.02,Wunderground v.1.15,2013-04-16 03:33:00,
2013-04-15 20:39:00,47.3,41.8,30.14,SW,227,4.0,13.0,81,0.13,,,0.03,Wunderground v.1.15,2013-04-16 03:39:00,
2013-04-15 20:44:00,46.8,41.3,30.14,SW,222,3.0,13.0,81,0.06,,,0.03,Wunderground v.1.15,2013-04-16 03:44:00,
2013-04-15 20:49:00,46.4,41.5,30.14,SW,236,4.0,13.0,83,0.04,,,0.03,Wunderground v.1.15,2013-04-16 03:49:00,
2013-04-15 20:55:00,46.1,41.5,30.14,SW,231,3.0,13.0,84,0.00,,,0.03,Wunderground v.1.15,2013-04-16 03:55:00,
2013-04-15 21:00:00,45.9,41.6,30.14,SW,235,2.0,2.0,85,0.00,,,0.03,Wunderground v.1.15,2013-04-16 04:00:00,
2013-04-15 21:01:00,45.9,41.6,30.15,WNW,300,2.0,4.0,85,0.00,,,0.03,Wunderground v.1.15,2013-04-16 04:01:00,
2013-04-15 21:03:00,45.8,41.9,30.15,WNW,299,2.0,13.0,86,0.00,,,0.03,Wunderground v.1.15,2013-04-16 04:03:00,
2013-04-15 21:06:00,45.8,42.2,30.15,WNW,299,1.0,13.0,87,0.00,,,0.03,Wunderground v.1.15,2013-04-16 04:06:00,
2013-04-15 21:11:00,45.8,42.4,30.15,WNW,299,1.0,13.0,88,0.00,,,0.03,Wunderground v.1.15,2013-04-16 04:11:00,
2013-04-15 21:13:00,45.8,42.2,30.15,WNW,299,1.0,13.0,87,0.00,,,0.03,Wunderground v.1.15,2013-04-16 04:13:00,
2013-04-15 21:18:00,45.6,42.0,30.16,WNW,299,0.0,13.0,87,0.00,,,0.03,Wunderground v.1.15,2013-04-16 04:18:00,
2013-04-15 21:23:00,45.5,42.2,30.16,WNW,299,0.0,13.0,88,0.00,,,0.03,Wunderground v.1.15,2013-04-16 04:23:00,
2013-04-15 21:29:00,45.3,42.0,30.16,WNW,299,0.0,13.0,88,0.00,,,0.03,Wunderground v.1.15,2013-04-16 04:29:00,
2013-04-15 21:34:00,45.3,42.2,30.18,North,5,1.0,13.0,89,0.00,,,0.03,Wunderground v.1.15,2013-04-16 04:34:00,
2013-04-15 21:40:00,45.2,41.0,30.18,NNW,340,6.0,13.0,85,0.00,,,0.03,Wunderground v.1.15,2013-04-16 04:40:00,
2013-04-15 21:45:00,45.0,40.1,30.19,NNW,327,9.0,16.0,83,0.00,,,0.03,Wunderground v.1.15,2013-04-16 04:45:00,
2013-04-15 21:52:00,44.2,39.4,30.19,NNE,32,9.0,13.0,83,0.00,,,0.03,Wunderground v.1.15,2013-04-16 04:52:00,
2013-04-15 21:57:00,43.7,39.5,30.19,North,355,8.0,15.0,85,0.00,,,0.04,Wunderground v.1.15,2013-04-16 04:57:00,
2013-04-15 22:02:00,43.4,39.5,30.20,North,350,7.0,13.0,86,0.00,,,0.04,Wunderground v.1.15,2013-04-16 05:02:00,
2013-04-15 22:07:00,43.1,38.9,30.20,North,355,10.0,16.0,85,0.00,,,0.04,Wunderground v.1.15,2013-04-16 05:07:00,
2013-04-15 22:13:00,43.1,38.6,30.20,NNE,22,11.0,13.0,84,0.00,,,0.04,Wunderground v.1.15,2013-04-16 05:13:00,
2013-04-15 22:18:00,43.0,38.5,30.20,NNE,12,8.0,13.0,84,0.00,,,0.04,Wunderground v.1.15,2013-04-16 05:18:00,
2013-04-15 22:24:00,42.9,38.4,30.20,NE,38,7.0,13.0,84,0.00,,,0.04,Wunderground v.1.15,2013-04-16 05:24:00,
2013-04-15 22:29:00,42.8,38.3,30.21,NNE,26,7.0,13.0,84,0.00,,,0.04,Wunderground v.1.15,2013-04-16 05:29:00,
2013-04-15 22:35:00,42.6,38.1,30.21,NNE,27,6.0,14.0,84,0.00,,,0.04,Wunderground v.1.15,2013-04-16 05:35:00,
2013-04-15 22:40:00,42.4,38.2,30.21,NNE,15,5.0,5.0,85,0.00,,,0.04,Wunderground v.1.15,2013-04-16 05:40:00,
2013-04-15 22:45:00,42.2,38.6,30.21,NE,42,4.0,13.0,87,0.00,,,0.04,Wunderground v.1.15,2013-04-16 05:45:00,
2013-04-15 22:51:00,42.1,38.5,30.21,NE,44,3.0,13.0,87,0.00,,,0.04,Wunderground v.1.15,2013-04-16 05:51:00,
2013-04-15 22:56:00,42.0,38.7,30.21,East,79,2.0,13.0,88,0.00,,,0.05,Wunderground v.1.15,2013-04-16 05:56:00,
2013-04-15 23:02:00,42.0,38.7,30.21,ESE,108,1.0,13.0,88,0.00,,,0.05,Wunderground v.1.15,2013-04-16 06:02:00,
2013-04-15 23:08:00,41.9,38.9,30.21,ESE,108,0.0,13.0,89,0.00,,,0.05,Wunderground v.1.15,2013-04-16 06:08:00,
2013-04-15 23:13:00,42.0,39.0,30.21,SSW,207,1.0,13.0,89,0.00,,,0.05,Wunderground v.1.15,2013-04-16 06:13:00,
2013-04-15 23:19:00,42.1,39.4,30.20,SW,223,2.0,13.0,90,0.00,,,0.05,Wunderground v.1.15,2013-04-16 06:19:00,
2013-04-15 23:24:00,42.2,39.5,30.20,SSW,207,3.0,13.0,90,0.00,,,0.05,Wunderground v.1.15,2013-04-16 06:24:00,
2013-04-15 23:29:00,42.2,39.8,30.19,SSW,210,3.0,13.0,91,0.00,,,0.05,Wunderground v.1.15,2013-04-16 06:29:00,
2013-04-15 23:35:00,42.1,39.7,30.19,SSW,212,2.0,13.0,91,0.00,,,0.05,Wunderground v.1.15,2013-04-16 06:35:00,
2013-04-15 23:40:00,42.1,39.4,30.19,SW,215,2.0,2.0,90,0.00,,,0.05,Wunderground v.1.15,2013-04-16 06:40:00,
2013-04-15 23:46:00,41.9,39.2,30.19,SW,214,1.0,13.0,90,0.00,,,0.05,Wunderground v.1.15,2013-04-16 06:46:00,
2013-04-15 23:51:00,41.6,38.9,30.19,SW,214,1.0,13.0,90,0.00,,,0.05,Wunderground v.1.15,2013-04-16 06:51:00,
2013-04-15 23:56:00,41.2,38.5,30.19,SW,214,1.0,13.0,90,0.00,,,0.00,Wunderground v.1.15,2013-04-16 06:56:00,